VKG1195 GCLP-EKCH

Flight info

Callsign VKG1195
Flight time N/A
Altitude 36000
Route VASTO/N0464F380 DCT BAROK DCT SUNES DCT SOTEX DCT EVURA DCT BIRBA DCT BABOV DCT BARDI DCT ZMR DCT NUBLO DCT RONSI DCT DELOG DCT DIDIG DCT USODA DCT ERCUT DCT DITAL DCT ELCOB DCT PODEM DCT BAZOS DCT BELDI DCT VEKIN DCT ADUTO N873 VICOT/N0462F390 DCT ROCZO DCT DOSUR DCT TALSA P729 TUDLO
Aircraft A339/H-SADE1E2E3GHIJ3J5M1P2RWXY/LB2D1

Departure

Time N/A
Airport Gran Canaria Airport (GCLP)

Arrival

Time 2026-05-06 19:30
Airport Copenhagen Kastrup Airport (EKCH)
Time Latitude Longitude Altitude Speed Heading
2026-05-06 17:24 45.08120 -3.24490 38020 ft 474 kts 33°
2026-05-06 17:25 45.10784 -3.21817 38017 ft 474 kts 33°
2026-05-06 17:25 45.16127 -3.16444 38009 ft 474 kts 33°
2026-05-06 17:26 45.21477 -3.11052 38004 ft 474 kts 33°
2026-05-06 17:26 45.26843 -3.05632 38002 ft 474 kts 33°
2026-05-06 17:27 45.32193 -3.00215 38002 ft 473 kts 33°
2026-05-06 17:27 45.37537 -2.94792 38002 ft 473 kts 33°
2026-05-06 17:28 45.42876 -2.89361 38002 ft 473 kts 33°
2026-05-06 17:28 45.48183 -2.83949 38001 ft 473 kts 33°
2026-05-06 17:29 45.53535 -2.78479 37997 ft 473 kts 33°
2026-05-06 17:29 45.58856 -2.73027 37990 ft 473 kts 33°
2026-05-06 17:30 45.64169 -2.67570 37982 ft 473 kts 33°
2026-05-06 17:30 45.69485 -2.62099 37977 ft 472 kts 33°
2026-05-06 17:31 45.74777 -2.56638 37974 ft 472 kts 33°
2026-05-06 17:31 45.80076 -2.51156 37973 ft 472 kts 33°
2026-05-06 17:32 45.85409 -2.45626 37973 ft 472 kts 33°
2026-05-06 17:32 45.90691 -2.40136 37973 ft 472 kts 33°
2026-05-06 17:33 45.96002 -2.34605 37973 ft 472 kts 34°
2026-05-06 17:33 46.01279 -2.29095 37973 ft 472 kts 34°
2026-05-06 17:34 46.06630 -2.23629 37974 ft 471 kts 32°
2026-05-06 17:34 46.12080 -2.18459 37974 ft 471 kts 31°
2026-05-06 17:35 46.17556 -2.13295 37973 ft 471 kts 31°
2026-05-06 17:35 46.22997 -2.08142 37973 ft 471 kts 31°
2026-05-06 17:36 46.31186 -2.00354 37973 ft 471 kts 31°
2026-05-06 17:36 46.36652 -1.95137 37973 ft 471 kts 31°
2026-05-06 17:37 46.42106 -1.89919 37973 ft 471 kts 31°
2026-05-06 17:37 46.47554 -1.84695 37974 ft 471 kts 31°
2026-05-06 17:38 46.52986 -1.79473 37973 ft 471 kts 31°
2026-05-06 17:38 46.58441 -1.74214 37973 ft 471 kts 31°
2026-05-06 17:39 46.63864 -1.68975 37973 ft 471 kts 31°
2026-05-06 17:39 46.69298 -1.63714 37973 ft 471 kts 31°
2026-05-06 17:40 46.74713 -1.58458 37973 ft 471 kts 31°
2026-05-06 17:40 46.80177 -1.53141 37973 ft 471 kts 31°
2026-05-06 17:41 46.85573 -1.47877 37973 ft 471 kts 31°
2026-05-06 17:41 46.91004 -1.42566 37973 ft 470 kts 32°
2026-05-06 17:42 46.96230 -1.36812 37973 ft 472 kts 38°
2026-05-06 17:42 47.00987 -1.30282 37973 ft 473 kts 45°
2026-05-06 17:43 47.05418 -1.23137 37974 ft 474 kts 47°
2026-05-06 17:43 47.09788 -1.15937 37974 ft 473 kts 47°
2026-05-06 17:44 47.14202 -1.08671 37974 ft 473 kts 47°
2026-05-06 17:44 47.18554 -1.01508 37973 ft 473 kts 47°
2026-05-06 17:45 47.22939 -0.94273 37973 ft 473 kts 47°
2026-05-06 17:45 47.27289 -0.87078 37973 ft 473 kts 47°
2026-05-06 17:46 47.31628 -0.79883 37974 ft 473 kts 47°
2026-05-06 17:46 47.35988 -0.72637 37974 ft 473 kts 47°
2026-05-06 17:47 47.40331 -0.65408 37973 ft 473 kts 46°
2026-05-06 17:47 47.44962 -0.58592 37973 ft 472 kts 40°
2026-05-06 17:48 47.50040 -0.52513 37974 ft 470 kts 35°
2026-05-06 17:48 47.55287 -0.46730 37973 ft 470 kts 34°
2026-05-06 17:49 47.60503 -0.40985 37973 ft 470 kts 34°
2026-05-06 17:49 47.65731 -0.35196 37973 ft 470 kts 34°
2026-05-06 17:50 47.70957 -0.29389 37973 ft 471 kts 36°
2026-05-06 17:50 47.76196 -0.23548 37973 ft 471 kts 36°
2026-05-06 17:51 47.81403 -0.17728 37973 ft 471 kts 36°
2026-05-06 17:51 47.86628 -0.11872 37973 ft 471 kts 36°
2026-05-06 17:52 47.91815 -0.06042 37973 ft 471 kts 36°
2026-05-06 17:52 47.97025 -0.00172 37973 ft 471 kts 36°
2026-05-06 17:53 48.02240 0.05707 37973 ft 471 kts 36°
2026-05-06 17:53 48.07457 0.11623 37973 ft 472 kts 36°
2026-05-06 17:54 48.12662 0.17538 37973 ft 472 kts 36°
2026-05-06 17:54 48.17876 0.23475 37974 ft 472 kts 36°
2026-05-06 17:55 48.23044 0.29374 37974 ft 472 kts 36°
2026-05-06 17:55 48.28261 0.35343 37974 ft 472 kts 36°
2026-05-06 17:56 48.33477 0.41329 37974 ft 472 kts 36°
2026-05-06 17:56 48.38671 0.47304 37974 ft 472 kts 36°
2026-05-06 17:57 48.43876 0.53309 37973 ft 472 kts 36°
2026-05-06 17:57 48.49056 0.59300 37973 ft 473 kts 36°
2026-05-06 17:58 48.54312 0.65394 37973 ft 474 kts 37°
2026-05-06 17:58 48.59526 0.71456 37973 ft 474 kts 37°
2026-05-06 17:59 48.64730 0.77522 37973 ft 474 kts 37°
2026-05-06 17:59 48.69934 0.83604 37973 ft 474 kts 37°
2026-05-06 18:00 48.75101 0.89657 37973 ft 474 kts 37°
2026-05-06 18:00 48.80328 0.95677 37973 ft 474 kts 36°
2026-05-06 18:01 48.85577 1.01710 37973 ft 474 kts 36°
2026-05-06 18:01 48.90818 1.07758 37973 ft 474 kts 36°
2026-05-06 18:02 48.96054 1.13822 37973 ft 475 kts 36°
2026-05-06 18:02 49.01273 1.19897 37973 ft 475 kts 37°
2026-05-06 18:03 49.06265 1.26498 37973 ft 476 kts 42°
2026-05-06 18:03 49.11041 1.33392 37973 ft 476 kts 43°
2026-05-06 18:04 49.15841 1.40358 37974 ft 476 kts 43°
2026-05-06 18:04 49.20609 1.47271 37974 ft 476 kts 43°
2026-05-06 18:05 49.25422 1.54266 37974 ft 476 kts 43°
2026-05-06 18:05 49.30205 1.61235 37974 ft 476 kts 43°
2026-05-06 18:06 49.34969 1.68192 37973 ft 476 kts 43°
2026-05-06 18:06 49.39750 1.75194 37973 ft 475 kts 43°
2026-05-06 18:07 49.44522 1.82201 37973 ft 476 kts 43°
2026-05-06 18:07 49.49295 1.89229 37973 ft 476 kts 43°
2026-05-06 18:08 49.54049 1.96254 37973 ft 476 kts 43°
2026-05-06 18:08 49.58812 2.03315 37971 ft 477 kts 43°
2026-05-06 18:09 49.63577 2.10398 37965 ft 477 kts 43°
2026-05-06 18:09 49.68313 2.17458 37959 ft 477 kts 43°
2026-05-06 18:10 49.73071 2.24570 37953 ft 477 kts 43°
2026-05-06 18:10 49.77799 2.31656 37949 ft 477 kts 43°
2026-05-06 18:11 49.81775 2.37629 37947 ft 477 kts 43°
2026-05-06 18:11 49.87311 2.45971 37947 ft 477 kts 43°
2026-05-06 18:12 49.92024 2.53095 37946 ft 477 kts 43°
2026-05-06 18:12 49.96779 2.60308 37946 ft 478 kts 43°
2026-05-06 18:13 50.01493 2.67483 37946 ft 478 kts 44°
2026-05-06 18:13 50.06235 2.74720 37947 ft 478 kts 44°
2026-05-06 18:14 50.10966 2.81959 37946 ft 478 kts 44°
2026-05-06 18:14 50.15906 2.89541 37947 ft 479 kts 44°
2026-05-06 18:15 50.20631 2.96812 37947 ft 479 kts 44°
2026-05-06 18:15 50.25621 3.03666 37946 ft 478 kts 33°
2026-05-06 18:16 50.31202 3.09201 37945 ft 478 kts 31°
2026-05-06 18:16 50.36828 3.14711 37938 ft 479 kts 32°
2026-05-06 18:17 50.42475 3.20260 37930 ft 479 kts 30°
2026-05-06 18:17 50.48295 3.25174 37924 ft 479 kts 26°
2026-05-06 18:18 50.54248 3.29848 37920 ft 479 kts 25°
2026-05-06 18:18 50.60175 3.34516 37919 ft 479 kts 26°
2026-05-06 18:19 50.66110 3.39215 37919 ft 479 kts 26°
2026-05-06 18:19 50.72062 3.43945 37920 ft 479 kts 25°
2026-05-06 18:20 50.77961 3.48642 37930 ft 479 kts 25°
2026-05-06 18:20 50.83882 3.53370 37939 ft 479 kts 25°
2026-05-06 18:21 50.89824 3.58128 38096 ft 481 kts 25°
2026-05-06 18:21 50.92796 3.60515 38378 ft 480 kts 25°
2026-05-06 18:21 50.95782 3.62916 38654 ft 479 kts 25°
2026-05-06 18:22 50.98718 3.65282 38872 ft 479 kts 26°
2026-05-06 18:22 51.01701 3.67687 38949 ft 480 kts 26°
2026-05-06 18:22 51.07624 3.72472 38961 ft 480 kts 26°
2026-05-06 18:23 51.13555 3.77278 38967 ft 480 kts 26°
2026-05-06 18:23 51.19493 3.82102 38970 ft 481 kts 26°
2026-05-06 18:24 51.25455 3.86948 38972 ft 481 kts 25°
2026-05-06 18:24 51.31426 3.91691 38971 ft 480 kts 25°
2026-05-06 18:25 51.37385 3.96425 38968 ft 480 kts 25°
2026-05-06 18:25 51.43353 4.01234 38962 ft 481 kts 27°
2026-05-06 18:26 51.49037 4.06724 38958 ft 483 kts 33°
2026-05-06 18:26 51.54386 4.13256 38953 ft 483 kts 38°
2026-05-06 18:27 51.59535 4.20155 38947 ft 483 kts 39°
2026-05-06 18:27 51.64682 4.27090 38940 ft 483 kts 39°
2026-05-06 18:28 51.69819 4.34006 38932 ft 483 kts 39°
2026-05-06 18:28 51.74942 4.40913 38924 ft 483 kts 39°
2026-05-06 18:29 51.80080 4.47858 38920 ft 483 kts 39°
2026-05-06 18:29 51.85228 4.54836 38919 ft 483 kts 39°
2026-05-06 18:30 51.90352 4.61800 38919 ft 483 kts 39°
2026-05-06 18:30 51.95483 4.68794 38918 ft 484 kts 39°
2026-05-06 18:31 52.00633 4.75839 38919 ft 484 kts 39°
2026-05-06 18:31 52.05759 4.82875 38919 ft 484 kts 39°
2026-05-06 18:32 52.10896 4.89944 38919 ft 485 kts 39°
2026-05-06 18:32 52.16025 4.97024 38919 ft 485 kts 39°
2026-05-06 18:33 52.21162 5.04137 38919 ft 486 kts 39°
2026-05-06 18:33 52.26293 5.11266 38919 ft 486 kts 39°
2026-05-06 18:34 52.31411 5.18400 38919 ft 486 kts 39°
2026-05-06 18:34 52.36551 5.25586 38919 ft 486 kts 40°
2026-05-06 18:35 52.41655 5.32744 38919 ft 486 kts 40°
2026-05-06 18:35 52.46777 5.39949 38919 ft 486 kts 40°
2026-05-06 18:36 52.51858 5.47122 38919 ft 487 kts 40°
2026-05-06 18:36 52.56992 5.54391 38919 ft 487 kts 40°
2026-05-06 18:37 52.61240 5.60424 38919 ft 487 kts 40°
2026-05-06 18:37 52.67199 5.68913 38919 ft 487 kts 40°
2026-05-06 18:38 52.72314 5.76226 38922 ft 487 kts 40°
2026-05-06 18:38 52.77401 5.83523 38928 ft 487 kts 40°
2026-05-06 18:39 52.82489 5.90845 38931 ft 487 kts 40°
2026-05-06 18:40 52.90132 6.01887 38931 ft 488 kts 40°
2026-05-06 18:40 52.94997 6.09682 38939 ft 489 kts 47°
2026-05-06 18:41 52.99570 6.18016 38943 ft 490 kts 47°
2026-05-06 18:41 53.04153 6.26364 38945 ft 490 kts 47°
2026-05-06 18:42 53.08757 6.34698 38945 ft 490 kts 47°
2026-05-06 18:42 53.13349 6.43004 38945 ft 490 kts 46°
2026-05-06 18:43 53.17944 6.51335 38946 ft 491 kts 46°
2026-05-06 18:43 53.22555 6.59722 38946 ft 491 kts 46°
2026-05-06 18:44 53.27143 6.68093 38945 ft 491 kts 47°
2026-05-06 18:44 53.31743 6.76516 38945 ft 491 kts 47°
2026-05-06 18:45 53.36322 6.84932 38945 ft 491 kts 47°
2026-05-06 18:45 53.40896 6.93367 38945 ft 492 kts 47°
2026-05-06 18:46 53.45498 7.01882 38945 ft 492 kts 47°
2026-05-06 18:46 53.50064 7.10358 38942 ft 492 kts 47°
2026-05-06 18:47 53.54653 7.18909 38935 ft 492 kts 47°
2026-05-06 18:47 53.59218 7.27445 38927 ft 493 kts 47°
2026-05-06 18:48 53.63772 7.35990 38922 ft 493 kts 47°
2026-05-06 18:48 53.68335 7.44579 38920 ft 494 kts 47°
2026-05-06 18:49 53.72905 7.53217 38919 ft 494 kts 47°
2026-05-06 18:49 53.77458 7.61848 38919 ft 494 kts 47°
2026-05-06 18:50 53.82013 7.70513 38918 ft 494 kts 48°
2026-05-06 18:50 53.86630 7.79329 38919 ft 495 kts 48°
2026-05-06 18:51 53.91203 7.88090 38919 ft 495 kts 48°
2026-05-06 18:51 53.95742 7.96818 38919 ft 495 kts 48°
2026-05-06 18:52 54.00279 8.05572 38919 ft 495 kts 48°
2026-05-06 18:52 54.04809 8.14357 38919 ft 495 kts 48°
2026-05-06 18:53 54.09315 8.23155 38917 ft 495 kts 48°
2026-05-06 18:53 54.13846 8.32031 38917 ft 495 kts 48°
2026-05-06 18:54 54.18351 8.40883 38917 ft 495 kts 48°
2026-05-06 18:54 54.22848 8.49750 38918 ft 496 kts 48°
2026-05-06 18:55 54.27348 8.58652 38918 ft 496 kts 48°
2026-05-06 18:55 54.31855 8.67603 38917 ft 496 kts 49°
2026-05-06 18:56 54.36333 8.76531 38917 ft 497 kts 49°
2026-05-06 18:56 54.40826 8.85518 38917 ft 497 kts 49°
2026-05-06 18:57 54.45298 8.94495 38917 ft 497 kts 49°
2026-05-06 18:57 54.49779 9.03527 38917 ft 497 kts 49°
2026-05-06 18:58 54.54240 9.12547 38917 ft 498 kts 49°
2026-05-06 18:58 54.58699 9.21599 38918 ft 498 kts 49°
2026-05-06 18:59 54.63173 9.30711 38921 ft 498 kts 49°
2026-05-06 18:59 54.67632 9.39831 38881 ft 497 kts 49°
2026-05-06 18:59 54.69859 9.44399 38395 ft 500 kts 49°
2026-05-06 19:00 54.72095 9.48997 37583 ft 507 kts 49°
2026-05-06 19:00 54.74349 9.53641 36825 ft 510 kts 49°
2026-05-06 19:00 54.76610 9.58309 36197 ft 509 kts 49°
2026-05-06 19:00 54.78125 9.61442 35812 ft 508 kts 49°
2026-05-06 19:01 54.81135 9.67673 35005 ft 507 kts 50°
2026-05-06 19:01 54.83385 9.72340 34333 ft 507 kts 50°
2026-05-06 19:01 54.85633 9.77010 33625 ft 508 kts 50°
2026-05-06 19:01 54.87900 9.81730 33107 ft 504 kts 50°
2026-05-06 19:02 54.90117 9.86354 32677 ft 499 kts 50°
2026-05-06 19:02 54.92333 9.90988 32215 ft 495 kts 50°
2026-05-06 19:02 54.94500 9.95517 31731 ft 492 kts 50°
2026-05-06 19:02 54.96710 10.00104 31247 ft 489 kts 50°
2026-05-06 19:03 54.98879 10.04586 30790 ft 485 kts 50°
2026-05-06 19:03 55.01028 10.09038 30337 ft 482 kts 50°
2026-05-06 19:03 55.03158 10.13457 29867 ft 479 kts 50°
2026-05-06 19:03 55.05282 10.17879 29391 ft 476 kts 50°
2026-05-06 19:04 55.07409 10.22316 28914 ft 473 kts 50°
2026-05-06 19:04 55.09483 10.26649 28468 ft 469 kts 50°
2026-05-06 19:04 55.11560 10.30999 28000 ft 467 kts 50°
2026-05-06 19:04 55.13634 10.35346 27535 ft 463 kts 50°
2026-05-06 19:05 55.15692 10.39667 27078 ft 460 kts 50°
2026-05-06 19:05 55.17703 10.43895 26648 ft 457 kts 50°
2026-05-06 19:05 55.19729 10.48163 26221 ft 453 kts 50°
2026-05-06 19:05 55.21733 10.52395 25796 ft 450 kts 50°
2026-05-06 19:06 55.23703 10.56561 25375 ft 446 kts 50°
2026-05-06 19:06 55.25679 10.60756 24948 ft 443 kts 51°
2026-05-06 19:06 55.27371 10.65169 24520 ft 440 kts 62°
2026-05-06 19:06 55.28578 10.70129 24089 ft 436 kts 72°
2026-05-06 19:07 55.29468 10.75168 23667 ft 432 kts 75°
2026-05-06 19:07 55.30016 10.78521 23386 ft 430 kts 75°
2026-05-06 19:07 55.31103 10.85196 22822 ft 426 kts 75°
2026-05-06 19:07 55.31932 10.90174 22397 ft 424 kts 74°
2026-05-06 19:08 55.32769 10.95130 21971 ft 421 kts 74°
2026-05-06 19:08 55.33597 11.00050 21546 ft 418 kts 74°
2026-05-06 19:08 55.34409 11.04922 21122 ft 416 kts 74°
2026-05-06 19:08 55.35206 11.09729 20702 ft 413 kts 74°
2026-05-06 19:09 55.36008 11.14579 20276 ft 411 kts 74°
2026-05-06 19:09 55.36794 11.19339 19855 ft 408 kts 74°
2026-05-06 19:09 55.37584 11.24134 19429 ft 406 kts 74°
2026-05-06 19:09 55.38363 11.28873 19006 ft 404 kts 74°
2026-05-06 19:10 55.39140 11.33615 18580 ft 402 kts 74°
2026-05-06 19:10 55.39905 11.38292 18158 ft 399 kts 73°
2026-05-06 19:10 55.40669 11.42971 17733 ft 397 kts 73°
2026-05-06 19:10 55.41430 11.47646 17307 ft 395 kts 73°
2026-05-06 19:11 55.42175 11.52247 16886 ft 393 kts 73°
2026-05-06 19:11 55.42919 11.56851 16462 ft 391 kts 73°
2026-05-06 19:11 55.43726 11.61417 16030 ft 388 kts 65°
2026-05-06 19:11 55.45203 11.65303 15592 ft 383 kts 44°
2026-05-06 19:12 55.47144 11.68429 15181 ft 380 kts 40°
2026-05-06 19:12 55.49130 11.71448 14757 ft 378 kts 39°
2026-05-06 19:12 55.51126 11.74483 14327 ft 375 kts 40°
2026-05-06 19:12 55.53073 11.77479 13905 ft 373 kts 40°
2026-05-06 19:13 55.55015 11.80497 13480 ft 371 kts 40°
2026-05-06 19:13 55.56921 11.83480 13060 ft 369 kts 40°
2026-05-06 19:13 55.58845 11.86504 12632 ft 366 kts 41°
2026-05-06 19:13 55.60741 11.89494 12207 ft 364 kts 41°
2026-05-06 19:14 55.62619 11.92458 11783 ft 362 kts 41°
2026-05-06 19:14 55.64483 11.95404 11359 ft 360 kts 41°
2026-05-06 19:14 55.66328 11.98322 10929 ft 356 kts 41°
2026-05-06 19:14 55.68130 12.01178 10235 ft 344 kts 41°
2026-05-06 19:15 55.69879 12.03954 9581 ft 332 kts 41°
2026-05-06 19:15 55.71580 12.06655 8946 ft 322 kts 41°
2026-05-06 19:15 55.73071 12.09469 8339 ft 312 kts 59°
2026-05-06 19:15 55.73648 12.13040 7973 ft 296 kts 89°
2026-05-06 19:16 55.73467 12.16530 7735 ft 280 kts 98°
2026-05-06 19:16 55.73151 12.19900 7497 ft 270 kts 99°
2026-05-06 19:16 55.72870 12.23122 7261 ft 261 kts 97°
2026-05-06 19:16 55.72631 12.26280 7058 ft 257 kts 97°
2026-05-06 19:17 55.72419 12.29406 6852 ft 252 kts 96°
2026-05-06 19:17 55.72222 12.32464 6656 ft 247 kts 96°
2026-05-06 19:17 55.72033 12.35459 6476 ft 242 kts 96°
2026-05-06 19:17 55.71849 12.38380 6261 ft 239 kts 96°
2026-05-06 19:18 55.71665 12.41290 6020 ft 237 kts 96°
2026-05-06 19:18 55.71480 12.44218 5792 ft 236 kts 96°
2026-05-06 19:18 55.71300 12.47071 5572 ft 235 kts 96°
2026-05-06 19:18 55.71206 12.49949 5374 ft 233 kts 85°
2026-05-06 19:19 55.71549 12.52774 5177 ft 232 kts 68°
2026-05-06 19:19 55.72218 12.55358 4984 ft 232 kts 63°
2026-05-06 19:19 55.72958 12.57886 4800 ft 231 kts 62°
2026-05-06 19:19 55.73698 12.60402 4620 ft 229 kts 63°
2026-05-06 19:20 55.74464 12.62899 4430 ft 229 kts 57°
2026-05-06 19:20 55.75433 12.65143 4242 ft 229 kts 48°
2026-05-06 19:20 55.76580 12.67079 4059 ft 229 kts 43°
2026-05-06 19:20 55.77782 12.68938 3882 ft 228 kts 43°
2026-05-06 19:21 55.79060 12.70592 3696 ft 230 kts 24°
2026-05-06 19:21 55.80616 12.71124 3467 ft 233 kts
2026-05-06 19:21 55.82240 12.71117 3223 ft 233 kts
2026-05-06 19:21 55.83871 12.70998 2971 ft 233 kts 359°
2026-05-06 19:22 55.85489 12.70926 2718 ft 232 kts
2026-05-06 19:22 55.86936 12.71936 2456 ft 227 kts 43°
2026-05-06 19:22 55.87822 12.74179 2201 ft 221 kts 76°
2026-05-06 19:22 55.87834 12.76824 2013 ft 215 kts 111°
2026-05-06 19:23 55.87056 12.79098 2024 ft 217 kts 130°
2026-05-06 19:23 55.86046 12.81110 2018 ft 217 kts 133°
2026-05-06 19:23 55.85015 12.83022 2011 ft 217 kts 134°
2026-05-06 19:23 55.83957 12.84948 2007 ft 216 kts 134°
2026-05-06 19:24 55.82898 12.86865 2006 ft 216 kts 134°
2026-05-06 19:24 55.81831 12.88726 2003 ft 216 kts 142°
2026-05-06 19:24 55.80445 12.89706 1992 ft 219 kts 176°
2026-05-06 19:24 55.78938 12.89398 2016 ft 222 kts 191°
2026-05-06 19:25 55.77472 12.88664 2007 ft 215 kts 198°
2026-05-06 19:25 55.76151 12.87570 1997 ft 205 kts 209°
2026-05-06 19:25 55.75015 12.86145 2002 ft 194 kts 217°
2026-05-06 19:25 55.74038 12.84616 2009 ft 184 kts 219°
2026-05-06 19:26 55.73091 12.83078 2015 ft 184 kts 219°
2026-05-06 19:26 55.72140 12.81566 2017 ft 184 kts 218°
2026-05-06 19:26 55.71182 12.80078 2020 ft 183 kts 218°
2026-05-06 19:26 55.70225 12.78605 1989 ft 180 kts 218°
2026-05-06 19:27 55.69287 12.77164 1782 ft 173 kts 218°
2026-05-06 19:27 55.68399 12.75795 1566 ft 166 kts 218°
2026-05-06 19:27 55.67551 12.74495 1336 ft 158 kts 218°
2026-05-06 19:27 55.66749 12.73247 1118 ft 149 kts 218°
2026-05-06 19:28 55.65978 12.72083 909 ft 141 kts 217°
2026-05-06 19:28 55.65255 12.70982 721 ft 137 kts 218°
2026-05-06 19:28 55.64542 12.69856 587 ft 137 kts 219°
2026-05-06 19:28 55.63830 12.68738 406 ft 137 kts 218°
2026-05-06 19:29 55.63117 12.67640 225 ft 136 kts 218°
2026-05-06 19:29 55.62410 12.66550 37 ft 135 kts 218°
2026-05-06 19:29 55.61797 12.65601 34 ft 81 kts 220°
2026-05-06 19:29 55.61451 12.65065 35 ft 52 kts 221°
2026-05-06 19:30 55.61283 12.64724 36 ft 28 kts 243°
2026-05-06 19:30 55.61218 12.64420 34 ft 21 kts 252°
2026-05-06 19:30 55.61192 12.64207 35 ft 16 kts 279°
2026-05-06 19:30 55.61275 12.64119 36 ft 16 kts 18°
2026-05-06 19:31 55.61369 12.64212 36 ft 15 kts 33°
2026-05-06 19:31 55.61459 12.64316 36 ft 15 kts 33°
2026-05-06 19:31 55.61615 12.64495 35 ft 9 kts 33°
2026-05-06 19:32 55.61675 12.64565 35 ft 10 kts 33°
2026-05-06 19:32 55.61740 12.64639 36 ft 11 kts 33°
2026-05-06 19:32 55.61808 12.64718 36 ft 12 kts 33°
2026-05-06 19:32 55.61875 12.64795 34 ft 10 kts 33°
2026-05-06 19:33 55.61939 12.64868 34 ft 8 kts 33°
2026-05-06 19:33 55.61991 12.64928 34 ft 9 kts 33°
2026-05-06 19:33 55.62055 12.65000 34 ft 12 kts 33°
2026-05-06 19:33 55.62138 12.65098 39 ft 14 kts 34°
2026-05-06 19:34 55.62233 12.65162 34 ft 13 kts 337°
2026-05-06 19:34 55.62281 12.65060 34 ft 13 kts 306°
2026-05-06 19:34 55.62349 12.64881 34 ft 20 kts 303°
2026-05-06 19:34 55.62426 12.64665 34 ft 21 kts 303°
2026-05-06 19:35 55.62508 12.64448 34 ft 20 kts 303°
2026-05-06 19:35 55.62568 12.64290 34 ft 7 kts 314°
2026-05-06 19:35 55.62597 12.64307 34 ft 6 kts 63°
2026-05-06 19:35 55.62617 12.64386 34 ft 6 kts 67°
2026-05-06 19:36 55.62624 12.64413 34 ft 0 kts 67°
2026-05-06 19:36 55.62624 12.64416 34 ft 0 kts 67°